Hammond, LA

2:00 PM CDT on March 26, 2017 (GMT -0500)
Hammond Municipal

Weather History for KHDC - December, 2012

Change the Weather History Date:

Friday, December 14, 2012

  Actual Average (KMSY) Record (KMSY)
Temperature  
Mean Temperature 50 °F -  
Max Temperature 66 °F 63 °F 80 °F (1971)
Min Temperature 33 °F 47 °F 22 °F (1962)
Degree Days  
Heating Degree Days 16    
Moisture  
Dew Point 46 °F    
Average Humidity 90    
Maximum Humidity 100    
Minimum Humidity 63    
Precipitation  
Precipitation 0.00 in - - ()
Sea Level Pressure  
Sea Level Pressure 30.23 in    
Wind  
Wind Speed 2 mph (SE)    
Max Wind Speed 12 mph    
Max Gust Speed 16 mph    
Visibility 10 miles    
Events      
Averages and records for this station are not official NWS values.
T = Trace of Precipitation, MM = Missing Value Source: NWS Daily Summary

Daily Weather History Graph

Daily Weather History Graph

Search for Another Location

Airport or City:

Trip Planner

Search our weather history database for the weather conditions in past years. The results will help you decide how hot, cold, wet, or windy it might be!

Date:

Astronomy

Dec. 14, 2012 Rise Set
Actual Time 6:50 AM CST 5:02 PM CST
Civil Twilight 6:24 AM CST 5:28 PM CST
Nautical Twilight 5:54 AM CST 5:58 PM CST
Astronomical Twilight 5:24 AM CST 6:28 PM CST
Moon 7:59 AM CST (12/14) 6:50 PM CST (12/14)
Length of Visible Light 11h 04m
Length of Day
10h 11m
Waxing Crescent, 3% of the Moon is Illuminated
Dec 14
Waxing Crescent
Dec 19
First Quarter
Dec 28
Full
Jan 4
Last Quarter
Jan 11
New

Hourly Weather History & Observations

Time (CST) Temp. Dew Point Humidity Pressure Visibility Wind Dir Wind Speed Gust Speed Precip Events Conditions
12:15 AM 37.4 °F 37.4 °F 100% 30.30 in 10.0 mi Calm Calm - N/A   Clear
12:35 AM 37.4 °F 37.4 °F 100% 30.28 in 10.0 mi Calm Calm - N/A   Clear
12:55 AM 37.4 °F 37.4 °F 100% 30.29 in 10.0 mi Calm Calm - N/A   Clear
1:15 AM 35.6 °F 35.6 °F 100% 30.30 in 10.0 mi Calm Calm - N/A   Clear
1:35 AM 35.6 °F 35.6 °F 100% 30.29 in 10.0 mi Calm Calm - N/A   Clear
1:55 AM 35.6 °F 35.6 °F 100% 30.29 in 10.0 mi Calm Calm - N/A   Clear
2:15 AM 33.8 °F 33.8 °F 100% 30.29 in 10.0 mi Calm Calm - N/A   Clear
2:35 AM 33.8 °F 33.8 °F 100% 30.29 in 10.0 mi Calm Calm - N/A   Clear
2:55 AM 35.6 °F 35.6 °F 100% 30.28 in 10.0 mi Calm Calm - N/A   Clear
3:15 AM 33.8 °F 33.8 °F 100% 30.27 in 10.0 mi Calm Calm - N/A   Clear
3:35 AM 35.6 °F 35.6 °F 100% 30.27 in 10.0 mi Calm Calm - N/A   Clear
3:55 AM 35.6 °F 35.6 °F 100% 30.29 in 10.0 mi Calm Calm - N/A   Clear
4:15 AM 35.6 °F 35.6 °F 100% 30.28 in 10.0 mi Calm Calm - N/A   Clear
4:35 AM 35.6 °F 35.6 °F 100% 30.27 in 10.0 mi Calm Calm - N/A   Clear
4:55 AM 35.6 °F 35.6 °F 100% 30.27 in 10.0 mi Calm Calm - N/A   Clear
5:15 AM 35.6 °F 35.6 °F 100% 30.27 in 10.0 mi Calm Calm - N/A   Clear
5:35 AM 35.6 °F 35.6 °F 100% 30.27 in 10.0 mi Calm Calm - N/A   Clear
5:55 AM 35.6 °F 35.6 °F 100% 30.28 in 10.0 mi Calm Calm - N/A   Clear
6:15 AM 35.6 °F 35.6 °F 100% 30.29 in 10.0 mi Calm Calm - N/A   Clear
6:35 AM 33.8 °F 33.8 °F 100% 30.29 in 10.0 mi Calm Calm - N/A   Clear
6:55 AM 33.8 °F 33.8 °F 100% 30.29 in 10.0 mi Calm Calm - N/A   Clear
7:15 AM 35.6 °F 35.6 °F 100% 30.30 in 10.0 mi Calm Calm - N/A   Clear
7:35 AM 35.6 °F 35.6 °F 100% 30.30 in 10.0 mi Calm Calm - N/A   Clear
7:55 AM 37.4 °F 37.4 °F 100% 30.31 in 10.0 mi Calm Calm - N/A   Clear
8:15 AM 41.0 °F 41.0 °F 100% 30.30 in 10.0 mi Calm Calm - N/A   Clear
8:35 AM 46.4 °F 42.8 °F 87% 30.31 in 10.0 mi Calm Calm - N/A   Clear
8:55 AM 48.2 °F 44.6 °F 87% 30.31 in 10.0 mi Calm Calm - N/A   Clear
9:15 AM 50.0 °F 46.4 °F 87% 30.32 in 10.0 mi Calm Calm - N/A   Clear
9:35 AM 53.6 °F 48.2 °F 82% 30.31 in 10.0 mi Calm Calm - N/A   Clear
9:55 AM 57.2 °F 48.2 °F 72% 30.31 in 10.0 mi East 4.6 mph - N/A   Clear
10:15 AM 59.0 °F 48.2 °F 67% 30.30 in 10.0 mi ESE 4.6 mph - N/A   Clear
10:35 AM 60.8 °F 50.0 °F 68% 30.29 in 10.0 mi East 5.8 mph - N/A   Clear
10:55 AM 62.6 °F 50.0 °F 63% 30.30 in 10.0 mi SE 5.8 mph - N/A   Clear
11:15 AM 62.6 °F 51.8 °F 68% 30.29 in 10.0 mi SSE 3.5 mph - N/A   Clear
11:35 AM 64.4 °F 51.8 °F 64% 30.28 in 10.0 mi SE 4.6 mph - N/A   Clear
11:55 AM 64.4 °F 53.6 °F 68% 30.26 in 10.0 mi ESE 8.1 mph - N/A   Clear
12:15 PM 66.2 °F 53.6 °F 64% 30.26 in 10.0 mi SSE 6.9 mph - N/A   Clear
12:35 PM 66.2 °F 53.6 °F 64% 30.24 in 10.0 mi South 9.2 mph - N/A   Clear
2:35 PM 64.4 °F 55.4 °F 73% 30.20 in 10.0 mi SE 9.2 mph - N/A   Clear
2:55 PM 66.2 °F 55.4 °F 68% 30.20 in 10.0 mi ESE 8.1 mph - N/A   Clear
3:15 PM 64.4 °F 55.4 °F 73% 30.17 in 10.0 mi ESE 10.4 mph - N/A   Clear
3:35 PM 62.6 °F 55.4 °F 77% 30.16 in 10.0 mi SE 9.2 mph - N/A   Clear
4:15 PM 60.8 °F 55.4 °F 82% 30.17 in 10.0 mi SE 10.4 mph - N/A   Clear
4:35 PM 59.0 °F 55.4 °F 88% 30.16 in 10.0 mi SE 6.9 mph - N/A   Clear
4:55 PM 59.0 °F 55.4 °F 88% 30.17 in 10.0 mi SSE 5.8 mph - N/A   Clear
5:15 PM 59.0 °F 55.4 °F 88% 30.16 in 10.0 mi SSE 6.9 mph - N/A   Clear
5:35 PM 57.2 °F 55.4 °F 94% 30.16 in 10.0 mi SE 5.8 mph - N/A   Clear
5:55 PM 59.0 °F 55.4 °F 88% 30.16 in 10.0 mi SE 8.1 mph - N/A   Clear
6:15 PM 57.2 °F 55.4 °F 94% 30.16 in 10.0 mi SE 8.1 mph - N/A   Clear
6:35 PM 57.2 °F 53.6 °F 88% 30.16 in 10.0 mi ESE 9.2 mph - N/A   Clear
6:55 PM 57.2 °F 53.6 °F 88% 30.16 in 10.0 mi ESE 11.5 mph 16.1 mph N/A   Clear
7:15 PM 57.2 °F 53.6 °F 88% 30.16 in 10.0 mi ESE 8.1 mph - N/A   Clear
7:35 PM 57.2 °F 53.6 °F 88% 30.16 in 10.0 mi ESE 5.8 mph - N/A   Clear
7:55 PM 55.4 °F 53.6 °F 94% 30.16 in 10.0 mi ESE 4.6 mph - N/A   Clear
8:35 PM 55.4 °F 53.6 °F 94% 30.15 in 10.0 mi ESE 4.6 mph - N/A   Clear
8:55 PM 55.4 °F 53.6 °F 94% 30.15 in 10.0 mi East 5.8 mph - N/A   Clear
9:15 PM 55.4 °F 53.6 °F 94% 30.14 in 10.0 mi ESE 3.5 mph - N/A   Clear
9:35 PM 55.4 °F 53.6 °F 94% 30.14 in 10.0 mi Calm Calm - N/A   Clear
9:55 PM 55.4 °F 53.6 °F 94% 30.14 in 10.0 mi ESE 5.8 mph - N/A   Clear
10:15 PM 55.4 °F 53.6 °F 94% 30.14 in 10.0 mi ESE 5.8 mph - N/A   Clear
10:35 PM 55.4 °F 53.6 °F 94% 30.12 in 10.0 mi ESE 9.2 mph - N/A   Clear
10:55 PM 55.4 °F 55.4 °F 100% 30.11 in 10.0 mi ESE 8.1 mph - N/A   Clear
11:15 PM 57.2 °F 55.4 °F 94% 30.10 in 10.0 mi ESE 9.2 mph - N/A   Clear
11:35 PM 57.2 °F 55.4 °F 94% 30.10 in 10.0 mi ESE 8.1 mph - N/A   Clear